RH
6 4 4 4 4 4 4 3 3 6 14 25 22 26 34 61 77 67 66 70 58 28 34 42 41 47 51 50 78 96 85 51 53
8 7 7 7 7 6 4 3 4 4 4 13 25 23 13 39 60 82 71 70 75 58 26 32 41 45 56 66 57 73 96 88 62
11 10 10 10 9 7 6 8 6 4 4 5 8 12 7 8 14 57 73 84 84 78 50 30 40 42 52 70 71 62 87 93 87
14 14 14 12 12 12 9 6 6 7 6 4 4 8 6 7 4 8 34 68 81 84 78 55 57 43 50 64 77 74 78 89 96
13 13 14 16 16 13 11 12 9 7 8 9 5 5 5 5 5 4 5 18 65 82 84 70 51 57 88 98 88 89 86 88 92
15 14 16 15 16 16 12 12 11 10 9 9 10 8 6 6 6 6 4 4 19 70 94 81 61 68 97 97 96 95 95 94 95
19 17 16 17 18 16 17 17 12 12 12 11 12 12 10 8 8 7 7 6 5 27 95 98 88 78 74 96 97 97 96 96 95
19 18 17 16 18 17 16 19 20 17 17 16 18 17 13 10 9 8 9 10 10 6 35 94 96 95 91 90 97 96 95 96 96
14 15 15 18 19 18 17 20 24 21 19 17 19 21 16 13 10 10 11 13 19 19 10 36 93 98 95 95 96 97 97 96 97
15 15 16 18 22 21 20 23 27 24 22 25 24 23 18 15 13 12 11 10 12 33 42 15 48 96 97 96 97 97 96 95 96
19 18 19 20 25 24 25 27 28 28 25 30 29 27 21 18 17 16 14 13 11 9 15 46 33 67 96 95 97 97 97 97 96
23 23 23 23 29 28 31 29 27 28 29 30 33 31 25 21 19 17 17 17 14 14 14 12 39 52 85 98 98 96 97 96 96
25 27 27 29 34 32 36 34 30 32 34 34 35 36 31 27 25 29 32 31 30 23 17 16 14 14 39 79 96 95 97 97 97
29 29 30 32 39 34 39 38 28 25 30 40 38 43 42 40 38 39 36 27 24 34 28 31 18 16 16 26 65 94 97 96 97
34 34 34 35 41 36 38 44 39 27 24 42 40 35 38 41 45 44 38 33 25 30 34 38 39 24 17 16 24 55 88 95 97
39 39 37 39 45 40 36 35 40 30 21 40 47 39 37 36 35 38 36 29 23 19 19 27 38 36 30 22 25 28 62 91 95
45 45 44 44 50 47 40 36 19 25 21 26 48 48 44 42 38 34 32 29 26 24 20 15 26 40 36 26 29 34 34 66 81
54 56 52 49 53 55 42 42 33 15 16 18 23 44 52 50 41 42 40 42 43 37 26 20 17 20 34 43 38 31 32 34 54
66 66 61 59 56 57 52 45 43 29 11 13 10 10 24 35 45 41 30 26 29 38 38 31 23 20 17 24 39 46 48 33 30
75 72 70 62 58 58 57 43 36 38 32 22 12 10 7 7 9 19 29 28 27 25 32 33 29 32 29 23 24 28 30 49 44
Wind_Speed
14 16 18 17 18 17 17 18 20 22 23 22 22 23 25 24 21 22 21 23 24 21 22 23 23 22 21 21 22 23 24 24 24
13 13 16 17 19 22 24 24 22 20 20 22 23 24 25 26 26 25 22 21 24 24 23 24 25 25 24 23 24 25 24 27 26
15 16 18 18 18 21 22 23 26 27 25 23 23 22 22 26 28 28 28 25 22 25 26 25 26 26 25 24 25 26 27 26 29
13 14 17 20 22 22 21 23 25 25 28 28 27 27 25 24 24 30 31 30 28 25 28 27 27 27 26 26 27 27 29 28 28
14 15 17 18 20 24 24 25 25 23 26 28 30 30 29 27 25 25 30 32 31 29 30 30 29 27 25 30 29 27 29 33 33
19 19 20 20 21 23 28 29 28 29 28 28 29 31 32 32 31 28 28 31 33 33 31 31 31 30 28 24 28 30 30 34 35
21 23 25 28 28 25 26 30 34 33 33 32 30 31 32 32 33 33 31 30 32 36 35 34 34 36 35 28 28 29 30 34 33
23 24 26 29 30 29 26 30 33 34 34 33 33 32 33 32 33 33 33 32 32 37 39 38 36 38 39 36 31 28 32 33 40
25 26 29 31 33 32 26 29 33 34 32 32 34 32 32 33 33 32 32 33 33 34 40 42 39 41 44 40 33 34 25 36 33
25 26 29 31 34 32 24 29 31 32 31 31 32 33 33 33 34 34 31 31 32 33 37 43 47 42 48 45 36 35 37 33 34
25 26 30 32 35 31 20 26 30 32 32 30 31 31 32 33 34 35 36 35 35 33 33 42 48 51 47 48 53 33 41 35 38
27 28 30 32 34 31 20 23 30 35 35 31 30 32 31 32 34 33 31 33 38 37 35 35 44 51 56 43 53 53 36 32 33
29 31 31 33 36 31 24 25 29 32 32 28 29 31 32 32 32 34 37 38 40 40 37 39 39 43 50 58 54 52 59 36 29
29 30 31 35 37 30 24 24 25 31 35 30 28 31 33 34 36 37 38 37 39 39 45 42 41 42 45 50 51 56 44 46 45
30 31 31 34 35 33 26 24 26 30 33 31 28 28 31 33 35 36 38 37 37 38 40 41 44 45 45 46 48 44 62 44 53
32 31 32 35 35 34 30 26 25 29 32 31 31 29 30 31 34 35 36 37 37 38 40 42 41 44 46 47 48 44 48 63 57
34 34 33 35 36 34 33 28 27 27 29 33 34 33 33 34 35 34 35 36 38 40 40 43 44 44 45 45 44 45 43 47 58
36 35 35 35 36 33 33 32 30 29 30 31 35 38 38 38 39 40 40 40 39 39 40 41 44 45 45 47 45 43 40 41 48
39 38 37 37 37 36 36 36 34 32 31 31 32 36 40 42 43 43 43 41 42 42 41 41 42 44 46 48 47 45 44 41 37
41 40 41 39 40 41 40 41 39 37 35 34 34 36 37 40 43 45 45 46 45 43 43 44 45 45 46 47 48 46 45 45 43
Wind_Direction
301 298 295 292 286 284 283 282 278 277 275 271 265 258 254 253 243 242 249 248 244 244 239 239 240 239 239 239 240 238 228 228 225
301 313 311 303 296 285 278 276 277 277 275 276 274 266 260 254 252 248 245 250 245 244 243 241 240 241 240 238 236 240 243 226 224
314 308 305 303 303 298 290 280 273 271 269 267 272 273 269 261 256 251 251 247 247 243 243 243 243 242 243 242 240 236 239 242 226
315 310 299 297 295 293 289 288 283 279 271 264 266 270 273 268 263 254 250 252 247 244 239 241 243 241 243 245 244 239 235 236 234
317 320 314 296 282 278 280 278 277 278 278 270 262 263 265 267 266 264 255 249 248 245 241 235 235 238 239 255 245 243 236 236 234
319 316 319 322 302 283 273 270 272 270 268 267 267 263 262 266 268 267 261 254 246 244 243 238 236 236 237 243 241 246 246 237 235
315 311 313 314 317 306 273 268 269 270 270 264 261 263 260 261 264 266 265 259 251 245 242 243 237 232 237 241 249 252 253 242 242
308 306 309 311 314 314 286 272 271 269 270 270 264 260 261 259 259 262 266 264 256 249 244 243 243 237 233 232 238 242 249 240 239
305 307 308 309 313 315 290 270 269 271 272 272 268 264 260 262 257 256 262 267 264 255 249 244 244 241 238 228 230 248 247 246 239
302 303 307 308 314 315 291 272 273 273 272 268 267 265 261 261 258 257 258 263 266 260 251 245 242 243 242 238 223 244 231 232 243
300 303 307 308 314 314 285 276 274 275 276 272 266 263 259 258 261 259 258 258 261 262 259 250 246 246 246 240 234 244 226 225 227
299 303 309 312 316 314 277 272 270 273 275 277 267 265 261 257 257 260 260 260 260 262 263 260 254 247 246 245 244 232 239 226 230
295 303 308 313 314 312 286 278 278 275 279 281 265 264 263 258 254 258 262 264 264 261 262 260 261 255 252 253 250 240 245 237 233
293 300 305 309 311 309 289 276 276 273 273 280 266 261 260 260 261 264 267 267 263 262 260 261 261 261 258 256 261 261 252 231 239
289 294 303 306 307 307 297 279 276 277 274 275 273 265 261 261 261 263 267 268 266 264 264 266 262 263 261 261 264 271 260 247 252
287 291 299 304 305 304 302 291 282 277 273 269 269 268 267 264 262 262 264 266 268 267 266 267 269 268 268 264 266 265 272 267 252
284 289 293 299 301 300 301 295 287 273 273 269 268 267 267 267 267 266 267 270 272 273 271 268 266 268 270 271 270 268 267 271 267
283 285 288 292 293 291 294 293 286 282 271 267 262 263 265 267 267 269 271 272 273 273 270 268 267 267 267 268 267 269 268 264 268
279 281 285 287 287 286 287 287 283 279 273 268 264 262 261 262 264 265 266 266 269 272 272 270 267 267 268 268 268 267 264 264 263
278 280 282 283 283 281 280 284 279 278 276 272 268 264 261 258 259 262 265 262 263 265 268 269 270 269 268 268 268 266 265 262 260